Lid_Strength_Index
3 4 3 3 2 2 2 2 2 2 2 2 2 2 3 2 3 3 2 3 3 3
3 4 2 2 2 2 2 2 2 2 3 2 2 2 2 2 2 2 2 2 3 4
2 2 2 2 2 3 3 2 3 3 3 2 1 2 2 2 2 3 3 3 4 5
2 2 2 2 2 2 2 3 3 3 3 2 2 2 2 3 3 3 4 4 4 4
2 2 2 2 2 2 3 3 3 3 3 1 2 2 2 3 2 3 4 4 4 3
3 2 2 3 3 3 3 3 2 2 2 1 2 2 2 2 3 3 3 3 4 3
3 3 2 3 3 3 2 3 2 1 1 2 2 2 3 2 3 3 4 4 3 3
2 2 2 2 3 2 2 2 2 2 3 2 2 2 2 3 3 4 4 4 3 3
2 2 3 3 2 2 3 4 3 3 3 3 3 9 6 4 4 4 4 4 4 3
3 4 4 3 3 4 4 4 4 4 4 4 5 10 9 7 3 4 4 3 3 2
3 4 4 4 4 4 4 4 4 4 4 4 6 10 9 7 3 4 3 3 2 2
3 4 4 5 4 3 4 4 4 3 3 3 5 10 10 5 3 3 4 3 2 2
3 4 3 3 3 3 2 3 3 4 4 5 5 10 10 5 3 3 4 4 4 7
3 3 3 3 2 2 3 4 4 5 4 3 4 6 10 8 3 3 4 4 4 5